Location: Rio Negrinho
(26.2394°S, 49.4999°W)
Time: 01:10:25
(UTC+00:00)

Daily predictions for brighter satellites

Satellite Brightness Start Highest point End
(mag) Time Altitude Azimuth Time Altitude Azimuth Time Altitude Azimuth
Centaur D-1AR AC-39 4.4 00:11:45 10° WNW 01:01:05 21° E 09:57:48 10° NE
USA 215 3.8 07:12:24 10° SE 07:18:50 54° NE 07:20:17 46° NNE
Cosmos 1844 Rocket 4.3 07:27:22 10° NNE 07:32:12 31° ENE 07:37:04 10° SE
Cosmos 1603 4.3 07:41:28 47° SE 07:42:25 53° ESE 07:47:51 10° NE
ALOS 4.2 07:51:19 10° N 07:52:38 19° N 07:52:38 19° N
ASTRO E2 4.1 08:00:07 33° SE 08:00:07 33° SE 08:02:32 10° ESE
Cosmos 494 Rocket 3.8 08:00:58 82° W 08:00:59 82° WNW 08:06:14 10° N
Cosmos 2228 Rocket 3.3 07:59:43 10° N 08:04:18 73° E 08:08:56 10° S
Cosmos 2123 Rocket 4.4 08:03:06 10° N 08:09:12 63° E 08:15:20 10° SSE
SWIFT 4.2 08:09:50 21° N 08:10:54 23° NNE 08:14:16 10° ENE
GOES 2 Rocket 2.9 08:12:10 76° NNW 08:12:13 76° NNW 08:16:54 10° ENE
Cosmos 1470 Rocket 3.5 08:15:16 66° NW 08:15:16 66° NW 08:19:11 10° N
Okean O Rocket 2.8 08:11:30 10° NE 08:15:33 40° ESE 08:19:40 10° S
GEOS 3 Rocket 3.4 08:13:35 10° SSE 08:18:40 90° ENE 08:23:43 10° NNW
STARLINK-1148 4.4 08:18:13 37° S 08:19:15 46° SE 08:23:15 10° ENE
Cosmos 1802 Rocket 4.3 08:13:04 10° S 08:19:15 67° E 08:25:21 10° NNE
Cosmos 44 4.3 08:22:03 27° NW 08:22:03 27° NW 08:24:46 10° N
Hubble Space Telescope 0.8 08:22:07 60° NW 08:22:27 63° NNW 08:26:33 10° ENE
SL-24 R/B 4.2 08:19:11 10° S 08:23:43 78° WSW 08:28:54 10° NNW
STARLINK-1158 4.2 08:22:59 38° S 08:24:12 52° SE 08:28:16 10° NE
H-2A R/B 4.0 08:21:11 10° NNW 08:23:32 25° NW 08:23:32 25° NW
STARLINK-1162 4.0 08:27:46 37° SSW 08:29:11 59° SE 08:33:17 10° NE
Cosmos 1844 3.6 08:30:52 10° NNW 08:36:34 78° WSW 08:42:15 10° SSE
STARLINK-1159 3.7 08:37:21 33° SSW 08:39:09 76° SE 08:43:18 10° NE
Cosmos 1812 3.1 08:37:23 10° N 08:41:14 66° E 08:45:06 10° SSE
Cosmos 44 Rocket 4.5 08:36:47 10° S 08:41:23 39° ESE 08:45:50 10° NE
Cosmos 1689 Rocket 1.9 08:40:45 45° SSW 08:41:27 65° WSW 08:44:21 10° NNW
Envisat 3.9 08:37:14 10° NNE 08:42:08 50° ESE 08:47:05 10° S
Cosmos 1184 Rocket 3.8 08:39:32 10° S 08:42:45 46° E 08:45:56 10° NNE
OAO 1 4.5 08:40:08 22° WNW 08:43:48 83° SSW 08:49:21 10° ESE
STARLINK-1171 3.6 08:42:08 30° SW 08:44:07 87° SE 08:48:17 10° NE
ADEOS Rocket 4.2 08:40:00 10° SSE 08:46:09 44° E 08:51:41 10° N
Delta 198 4.0 08:44:29 27° WNW 08:46:20 47° NNW 08:50:47 10° ENE
NOAA 6 4.1 08:43:04 10° N 08:48:06 55° W 08:53:12 10° SSW
STARLINK-1155 3.5 08:46:54 28° SW 08:49:04 83° NW 08:53:14 10° NE
Cosmos 2100 Rocket 4.3 08:43:17 10° SSW 08:49:13 45° W 08:55:10 10° NNW
Cosmos 1707 Rocket 3.8 08:45:23 10° N 08:49:51 76° E 08:54:22 10° S
USA 229 DEB 4.4 08:46:44 10° WNW 08:53:45 38° WSW 09:00:37 10° S
USA 229 4.4 08:46:49 10° WNW 08:53:52 38° WSW 09:00:46 10° S
STARLINK-1166 3.6 08:51:42 25° SW 08:54:03 73° NW 08:58:11 10° NNE
CREW DRAGON DEMO-1 DEB 2.8 08:53:48 29° SW 08:55:13 88° SE 08:58:18 10° NE
AQUARIUS 4.4 08:53:01 10° NNE 08:57:30 71° ESE 09:02:02 10° S
STARLINK-1165 3.7 08:56:29 22° SW 08:59:01 63° NW 09:03:07 10° NNE
Cosmos 1869 Rocket 3.6 08:54:37 10° S 08:59:11 87° E 09:03:40 10° N
Cosmos 1459 Rocket 4.4 08:53:24 10° SSW 08:59:18 40° W 09:05:05 10° NNW
SMAP 3.1 08:55:46 10° NNE 09:00:26 88° ESE 09:05:10 10° SSW
USA 215 3.9 08:55:47 10° SSE 09:01:31 33° SW 09:07:14 10° WNW
Cosmos 2173 Rocket 4.5 08:57:40 10° SSW 09:03:12 36° W 09:08:44 10° NNW
STARLINK-1169 3.8 09:01:17 20° SW 09:03:59 55° NW 09:08:03 10° NNE
NOSS 3-1 (A) 4.4 08:55:40 10° NW 09:04:14 49° WSW 09:12:09 10° SSE
Cosmos 2016 Rocket 4.1 08:58:08 10° SSW 09:04:23 58° W 09:10:28 10° N
Meteor 2-20 Rocket 4.4 08:58:20 10° NNW 09:04:25 66° W 09:10:36 10° S
PSLV R/B 3.8 09:00:23 10° S 09:04:28 67° WSW 09:08:29 10° NNW
SKYMED 2 4.1 09:03:10 10° SSE 09:07:32 63° E 09:11:49 10° N
GPS 2-04 Rocket1 4.4 09:05:36 15° SW 09:07:54 22° S 09:11:14 10° SE
STARLINK-1178 4.0 09:06:04 18° WSW 09:08:58 48° NW 09:12:57 10° NNE
Intelsat 5-3 Rocket 3.0 09:02:50 13° W 09:09:03 60° N 09:12:18 10° ENE
STARLINK-1120 4.2 09:10:50 16° WSW 09:13:54 42° NW 09:17:50 10° NNE
ATLAS 3B CENTAUR R/B 2.2 09:12:44 10° NW 09:15:51 55° NNE 09:22:20 10° E
Cosmos 1943 4.4 09:12:19 13° WSW 09:15:55 23° W 09:20:18 10° NNW
Cosmos 1844 Rocket 3.6 09:11:31 10° WNW 09:15:58 24° WSW 09:20:29 10° S
Okean-O 4.4 09:12:04 10° NE 09:16:02 33° ESE 09:20:04 10° S
SEDSat Delta rocket 3.4 09:14:49 13° W 09:18:51 55° NNW 09:23:00 10° NE
STARLINK-1131 4.4 09:15:36 14° WSW 09:18:51 37° NW 09:22:41 10° NNE
H-2A R/B 3.9 09:18:01 10° NNW 09:21:01 23° W 09:24:03 10° SW
CZ-4B R/B 3.8 09:16:44 10° NNW 09:21:26 33° W 09:26:12 10° SW
NOAA 12 4.1 09:17:10 10° N 09:22:29 75° WNW 09:27:51 10° SSW
GPS 2-12 Rocket1 4.3 09:18:50 10° WNW 09:23:08 37° N 09:27:31 10° ENE
CZ-4 R/B 3.4 09:24:52 10° NE 09:28:11 27° ESE 09:31:31 10° SSE
IRS-1C Rocket 4.1 09:24:02 10° NNE 09:29:19 87° WNW 09:34:40 10° SSW
Cosmos 1500 3.4 09:26:44 10° SSW 09:30:25 49° W 09:34:06 10° NNW
Cosmos 1371 Rocket 4.0 09:26:57 10° NNW 09:32:13 77° WSW 09:37:37 10° SSE
Delta 128 4.2 09:28:11 10° W 09:32:45 54° NNW 09:37:52 10° ENE
SL-4 R/B 3.0 09:34:34 10° NNW 09:38:21 47° NE 09:41:54 10° SE
BREEZE-M DEB (TANK) 1.9 09:35:32 10° SW 09:38:38 63° NW 09:40:42 10° NE
Cosmos 2278 Rocket 2.3 09:33:08 10° NNW 09:38:47 87° ENE 09:44:30 10° SSE
ASTRO E2 3.5 09:35:32 10° WSW 09:39:19 38° S 09:43:06 10° ESE
STARLINK-1077 4.4 09:37:06 10° SSW 09:41:11 49° SE 09:45:12 10° ENE
